This demonstration page uses our WeatherBlox Daily Observations layout. Learn more.

41.55636, -103.73856

Hourly Observations for July 31, 2019

Temp ( °F °C ) Dew Point ( °F °C ) Humidity (%) Winds ( mph kmh ) Pressure ( in mb ) Visibility ( mi km ) Precip ( " mm )
12:58 am 00:58 Clear 82 27.8 56 13.1 40 40 SSE 16 26 29.85 1011 10 16.0934 0 0
1:58 am 01:58 Clear 78 25.8 56 13.4 46 46 SSE 14 22 29.88 1012 10 16.0934 0 0
2:58 am 02:58 Mostly Cloudy 75 23.9 58 14.3 55 55 S 12 19 29.89 1012 10 16.0934 0 0
3:58 am 03:58 Mostly Cloudy 76 24.7 47 8.4 35 35 SSW 15 24 29.89 1012 10 16.0934 0 0
4:58 am 04:58 Mostly Cloudy 73 22.8 47 8.5 40 40 SSW 15 24 29.88 1012 10 16.0934 0 0
5:58 am 05:58 Mostly Cloudy 73 22.9 46 7.8 38 38 SW 16 26 29.87 1011 10 16.0934 0 0
6:58 am 06:58 Partly Cloudy 72 22.3 47 8.2 41 41 SW 21 33 29.88 1012 10 16.0934 0 0
7:58 am 07:58 Clear 70 21.2 46 7.9 42 42 WSW 16 26 29.87 1011 10 16.0934 0 0
8:58 am 08:58 Clear 70 21.1 43 6.3 38 38 W 14 22 29.86 1011 10 16.0934 0 0
9:58 am 09:58 Clear 69 20.4 43 6.1 39 39 W 12 19 29.88 1012 10 16.0934 0 0
10:58 am 10:58 Clear 70 21.2 43 6.2 38 38 NW 14 22 29.79 1009 10 16.0934 0 0
11:58 am 11:58 Sunny 62 16.6 57 14 85 85 N 13 20 29.97 1015 10 16.0934 0 0
12:58 pm 12:58 Mostly Cloudy 62 16.6 58 14.6 88 88 N 9 15 30 1016 10 16.0934 0 0
1:58 pm 13:58 Mostly Cloudy 63 17.2 59 14.9 86 86 NNE 10 17 30.03 1017 10 16.0934 0 0
2:58 pm 14:58 Cloudy 65 18.2 59 15.2 83 83 NNE 9 15 30.05 1018 10 16.0934 0 0
3:58 pm 15:58 Mostly Cloudy 67 19.6 61 16.1 80 80 N 7 11 30.05 1018 10 16.0934 0 0
4:58 pm 16:58 Sunny 72 22.3 61 16 68 68 NNE 6 9 30.05 1018 10 16.0934 0 0
5:58 pm 17:58 Partly Cloudy 75 23.8 60 15.4 59 59 Calm 30.04 1017 10 16.0934 0 0
6:56 pm 18:56 Mostly Sunny 76 24.4 59 15.1 56 56 Calm 30.04 1017 10 16.0934 0 0
7:58 pm 19:58 Mostly Sunny 79 26.2 59 15.2 51 51 Calm 30.01 1016 10 16.0934 0 0
8:58 pm 20:58 Mostly Sunny 82 27.5 57 13.9 43 43 ESE 6 9 29.99 1016 10 16.0934 0 0
9:58 pm 21:58 Sunny 82 27.5 57 13.7 43 43 ESE 9 15 30 1016 10 16.0934 0 0
10:58 pm 22:58 Mostly Sunny 81 27.3 57 14.1 44 44 E 6 9 30 1016 10 16.0934 0 0
11:58 pm 23:58 Sunny 81 27.3 58 14.5 46 46 E 5 7 30.01 1016 10 16.0934 0 0

Powered by AerisWeather